Total_Precipitation_Accumulation
0.00 0.00 0.00 0.00 0.00 0.00 0.00 0.00 0.00 0.00 0.00 0.00 0.00 0.00 0.00 0.00 0.00 0.00 0.00 0.01 0.01 0.01 0.00 0.00 0.00 0.02 0.01 0.01 0.01 0.00 0.00 0.01 0.00 0.00 0.00 0.00 0.00 0.00 0.00 0.00 0.00 0.00 0.00
0.00 0.00 0.00 0.00 0.00 0.00 0.01 0.01 0.00 0.00 0.00 0.00 0.00 0.00 0.00 0.00 0.00 0.00 0.00 0.00 0.00 0.00 0.00 0.00 0.00 0.00 0.02 0.01 0.01 0.00 0.01 0.01 0.01 0.00 0.00 0.00 0.00 0.00 0.00 0.00 0.00 0.00 0.00
0.00 0.00 0.00 0.00 0.00 0.00 0.01 0.02 0.01 0.00 0.00 0.00 0.00 0.00 0.00 0.00 0.00 0.00 0.00 0.00 0.00 0.00 0.00 0.00 0.00 0.01 0.03 0.01 0.02 0.00 0.00 0.01 0.03 0.03 0.00 0.00 0.00 0.00 0.00 0.00 0.00 0.00 0.00
0.00 0.00 0.00 0.00 0.00 0.03 0.09 0.06 0.01 0.01 0.01 0.02 0.02 0.01 0.00 0.00 0.00 0.01 0.01 0.01 0.01 0.02 0.05 0.07 0.04 0.03 0.02 0.03 0.02 0.03 0.02 0.04 0.03 0.04 0.03 0.01 0.00 0.00 0.00 0.00 0.00 0.00 0.00
0.01 0.00 0.00 0.00 0.04 0.17 0.27 0.34 0.23 0.16 0.10 0.04 0.02 0.00 0.00 0.00 0.01 0.00 0.02 0.03 0.09 0.10 0.10 0.12 0.09 0.16 0.07 0.02 0.04 0.02 0.03 0.04 0.04 0.09 0.08 0.02 0.01 0.02 0.03 0.01 0.00 0.00 0.00
0.00 0.01 0.00 0.00 0.04 0.14 0.37 0.73 0.41 0.23 0.16 0.15 0.09 0.04 0.02 0.02 0.03 0.01 0.03 0.14 0.16 0.20 0.17 0.14 0.13 0.13 0.13 0.16 0.15 0.04 0.07 0.10 0.22 0.21 0.10 0.06 0.06 0.06 0.07 0.05 0.02 0.01 0.01
0.01 0.00 0.00 0.01 0.07 0.13 0.15 0.22 0.26 0.33 0.31 0.14 0.05 0.03 0.03 0.08 0.27 0.13 0.18 0.15 0.18 0.19 0.15 0.15 0.13 0.08 0.13 0.06 0.13 0.19 0.22 0.23 0.20 0.20 0.08 0.09 0.11 0.12 0.13 0.08 0.07 0.08 0.04
0.02 0.00 0.00 0.00 0.05 0.11 0.12 0.13 0.12 0.10 0.05 0.05 0.10 0.16 0.15 0.15 0.17 0.15 0.12 0.09 0.10 0.11 0.17 0.17 0.13 0.16 0.20 0.13 0.20 0.20 0.17 0.16 0.26 0.23 0.12 0.07 0.10 0.09 0.07 0.08 0.13 0.08 0.06
0.00 0.04 0.01 0.00 0.01 0.05 0.06 0.05 0.05 0.02 0.02 0.05 0.24 0.39 0.25 0.19 0.19 0.17 0.16 0.07 0.09 0.16 0.20 0.14 0.16 0.16 0.27 0.31 0.22 0.24 0.12 0.09 0.17 0.16 0.06 0.05 0.07 0.11 0.06 0.05 0.08 0.14 0.10
0.04 0.12 0.09 0.05 0.04 0.01 0.00 0.02 0.07 0.14 0.17 0.10 0.09 0.13 0.15 0.18 0.23 0.16 0.19 0.14 0.14 0.14 0.15 0.13 0.15 0.09 0.28 0.31 0.18 0.19 0.10 0.13 0.13 0.12 0.09 0.05 0.06 0.08 0.11 0.07 0.14 0.22 0.17
0.06 0.05 0.08 0.11 0.13 0.04 0.05 0.17 0.24 0.24 0.11 0.03 0.07 0.29 0.28 0.19 0.26 0.15 0.15 0.12 0.11 0.11 0.15 0.20 0.20 0.26 0.23 0.27 0.23 0.24 0.19 0.17 0.19 0.09 0.10 0.11 0.10 0.08 0.19 0.23 0.22 0.32 0.25
0.05 0.11 0.08 0.06 0.10 0.06 0.19 0.23 0.17 0.15 0.22 0.28 0.35 0.30 0.20 0.25 0.22 0.16 0.14 0.08 0.08 0.07 0.12 0.15 0.21 0.17 0.19 0.21 0.27 0.27 0.21 0.16 0.10 0.11 0.10 0.10 0.11 0.11 0.18 0.27 0.46 0.45 0.46
0.10 0.06 0.07 0.03 0.08 0.18 0.20 0.16 0.19 0.20 0.22 0.17 0.15 0.19 0.26 0.29 0.23 0.18 0.15 0.07 0.04 0.05 0.11 0.23 0.22 0.24 0.25 0.26 0.23 0.21 0.20 0.20 0.17 0.20 0.16 0.14 0.14 0.21 0.24 0.39 0.42 0.36 0.44
0.14 0.11 0.08 0.03 0.03 0.09 0.23 0.29 0.14 0.22 0.25 0.33 0.37 0.45 0.47 0.39 0.23 0.14 0.17 0.19 0.16 0.21 0.20 0.20 0.29 0.29 0.27 0.23 0.24 0.24 0.20 0.21 0.21 0.19 0.18 0.21 0.33 0.47 0.49 0.48 0.50 0.60 0.67
0.06 0.19 0.24 0.22 0.19 0.23 0.27 0.38 0.48 0.60 0.54 0.61 0.71 0.78 0.69 0.59 0.54 0.60 0.64 0.59 0.60 0.79 0.88 0.79 0.71 0.58 0.56 0.39 0.33 0.29 0.26 0.23 0.24 0.44 0.65 0.76 0.76 0.85 0.74 0.78 0.92 1.07 1.20
0.25 0.41 0.51 0.58 0.66 0.69 0.75 0.85 1.04 0.97 0.92 1.07 1.09 1.06 1.42 1.97 2.43 2.26 2.43 2.41 2.08 1.88 1.77 1.40 0.91 0.61 0.58 0.57 0.63 0.51 0.39 0.36 0.41 0.76 0.93 0.88 0.91 0.81 0.78 0.85 0.88 0.81 0.81
0.34 0.26 0.23 0.37 0.64 0.71 0.84 0.84 0.85 1.01 1.02 1.02 1.24 1.37 1.38 1.16 1.01 1.07 1.14 0.90 0.87 1.01 0.75 0.43 0.33 0.34 0.38 0.47 0.53 0.47 0.48 0.50 0.62 0.85 0.98 0.86 0.80 0.74 0.84 0.78 0.80 0.79 0.77
0.77 0.96 0.95 0.74 0.68 0.57 0.63 0.71 0.94 1.01 0.95 0.80 0.62 0.62 0.48 0.46 0.54 0.56 0.57 0.41 0.31 0.36 0.24 0.31 0.23 0.33 0.32 0.27 0.25 0.25 0.28 0.42 0.55 0.64 0.60 0.59 0.64 0.62 0.56 0.52 0.72 0.83 0.78
1.28 0.90 1.01 1.40 1.53 1.32 1.23 1.04 0.62 0.39 0.40 0.34 0.36 0.44 0.54 0.51 0.58 0.58 0.48 0.28 0.29 0.29 0.42 0.45 0.48 0.66 0.64 0.50 0.52 0.47 0.39 0.44 0.53 0.50 0.59 0.70 0.83 1.06 1.28 1.60 2.13 2.70 2.88
1.74 2.33 1.97 1.75 1.84 1.83 1.85 1.96 1.75 1.40 1.26 1.01 0.92 0.81 0.86 0.89 0.80 0.78 0.71 0.73 0.70 0.86 1.04 0.99 0.92 0.96 1.00 0.97 1.09 1.19 1.16 1.36 1.41 1.53 1.61 1.85 2.33 2.76 3.12 3.31 2.82 2.13 1.58
1.39 1.33 1.43 1.43 1.79 2.02 2.02 2.14 2.14 2.08 2.05 2.00 2.08 2.14 2.30 2.18 1.72 1.64 1.69 1.71 1.47 1.47 1.93 2.23 2.60 3.10 3.25 3.33 3.28 3.31 3.17 3.12 3.04 3.09 3.55 3.60 3.49 3.34 2.94 2.22 1.64 1.30 0.74
0.54 0.88 1.07 1.29 0.83 0.78 0.78 0.73 0.87 0.92 0.97 1.14 1.13 1.32 1.60 1.59 1.37 1.50 1.48 1.43 1.45 1.59 1.82 1.82 1.83 1.90 2.13 2.36 2.32 1.90 1.52 1.71 1.80 1.83 1.88 1.86 1.82 1.87 1.84 1.59 1.02 0.61 0.22
0.25 0.38 0.47 0.78 1.31 1.26 1.37 1.24 1.04 0.73 0.70 0.72 0.87 0.65 0.43 0.45 0.40 0.41 0.42 0.42 0.42 0.37 0.47 0.42 0.37 0.28 0.20 0.17 0.18 0.18 0.16 0.15 0.17 0.23 0.24 0.30 0.38 0.36 0.38 0.28 0.19 0.12 0.04
0.11 0.48 0.85 0.68 0.61 0.64 0.62 1.14 1.92 2.16 1.88 1.61 1.29 1.16 1.08 0.78 0.67 0.75 0.79 0.60 0.52 0.48 0.37 0.35 0.26 0.22 0.15 0.15 0.14 0.12 0.11 0.10 0.09 0.07 0.09 0.10 0.11 0.13 0.09 0.04 0.02 0.01 0.00
0.10 0.14 0.41 0.90 1.05 0.90 0.92 0.87 0.71 0.70 0.86 1.11 1.33 1.20 1.11 1.01 0.86 0.73 0.61 0.55 0.54 0.63 0.47 0.40 0.31 0.21 0.14 0.13 0.11 0.09 0.07 0.06 0.05 0.10 0.10 0.08 0.07 0.08 0.07 0.04 0.02 0.00 0.00
0.11 0.12 0.15 0.21 0.40 0.56 0.69 0.83 1.17 1.33 0.92 0.64 0.65 0.75 0.93 0.94 0.82 0.67 0.63 0.66 0.64 0.62 0.65 0.60 0.54 0.42 0.28 0.22 0.17 0.13 0.08 0.05 0.03 0.02 0.02 0.03 0.05 0.04 0.02 0.03 0.03 0.03 0.03